Wind_Speed
21 22 22 22 22 22 22 22 22 21 21 20 19 19 18 17 16 16 17 17 17 18 18 18 19 19 20 19 19 18 17 16 16 15 15 15 15 15 16 16 16 17 17
25 25 26 26 26 26 26 25 25 25 24 23 22 22 22 21 20 19 19 19 19 19 19 20 20 20 21 21 21 20 19 19 18 17 16 16 16 16 16 16 17 17 18
30 30 30 30 29 29 29 29 28 28 27 26 25 25 24 24 24 23 22 22 22 21 21 21 21 21 22 22 22 22 22 21 21 20 19 18 17 17 17 17 18 18 18
35 34 34 34 33 32 32 31 31 30 29 29 28 28 27 27 27 26 26 25 24 24 23 23 23 22 23 24 24 24 24 24 23 23 22 21 20 19 18 18 19 19 19
39 39 38 38 37 36 35 34 34 33 32 31 30 30 30 30 30 29 29 28 27 27 26 26 25 25 25 25 26 27 27 26 26 25 25 24 22 22 21 20 20 20 20
43 43 42 42 41 39 38 37 37 36 36 34 33 33 33 33 32 32 31 31 30 29 28 28 27 27 27 27 27 27 28 29 28 28 27 26 25 24 23 23 22 22 22
46 46 46 45 45 43 42 41 40 40 38 37 35 35 35 35 34 34 34 33 32 31 30 29 29 28 28 28 28 29 29 30 30 29 29 28 28 27 26 25 24 24 24
48 47 47 47 47 46 44 44 43 41 40 39 37 36 35 36 35 35 35 34 33 33 31 31 30 30 30 30 30 30 30 31 31 31 30 30 30 29 28 27 26 26 25
48 48 48 49 48 47 45 45 45 42 41 40 39 37 36 36 36 34 34 34 33 32 32 31 31 31 31 31 32 32 32 32 33 33 33 32 32 31 31 30 28 28 27
47 47 48 49 49 48 47 46 45 43 43 41 38 36 35 35 34 32 33 34 33 32 31 31 31 31 31 31 32 32 33 33 34 34 34 34 34 33 33 32 30 29 29
47 47 48 47 47 47 44 41 39 40 39 37 37 35 34 33 32 31 31 32 32 32 32 31 30 30 30 31 32 33 34 34 35 35 36 35 35 35 35 34 32 31 30
48 48 47 47 46 46 42 40 39 37 35 33 33 32 32 32 31 31 30 30 30 31 32 32 30 29 29 31 32 33 34 35 35 36 37 37 37 36 36 35 34 32 31
49 48 47 44 42 42 40 38 36 35 32 31 30 31 31 31 30 30 29 28 29 30 31 32 31 30 30 30 32 32 33 34 34 35 37 38 38 37 37 36 34 32 31
48 47 44 43 42 41 38 36 33 32 30 29 28 29 29 29 29 29 28 27 27 28 30 31 31 30 30 31 32 33 33 34 34 34 35 36 36 37 37 36 34 32 30
47 45 43 41 39 38 37 33 30 29 29 29 29 29 29 29 28 28 28 28 28 28 29 30 31 31 30 31 32 32 33 33 33 34 34 34 34 35 36 35 34 31 30
46 44 44 40 38 36 34 31 29 28 28 29 30 30 29 29 29 29 29 29 29 29 29 31 32 32 32 31 31 32 33 33 32 32 32 33 33 34 35 35 33 31 30
44 44 42 40 38 35 33 31 30 29 29 29 30 30 29 30 30 31 31 30 30 31 31 32 33 33 34 34 33 32 32 32 32 31 31 31 32 32 32 33 32 31 30
42 42 39 37 35 34 33 30 29 29 29 30 30 30 30 31 32 32 32 33 33 33 33 34 35 35 35 35 35 34 33 33 33 32 31 31 31 31 31 30 30 29 30
37 36 36 34 31 31 30 30 30 29 29 30 30 30 31 32 32 33 34 34 35 36 36 36 36 37 37 37 36 35 34 33 33 33 32 32 31 29 29 28 28 27 27
35 34 32 30 30 30 29 29 28 28 29 29 29 30 31 32 33 34 35 36 37 38 38 39 39 38 38 38 38 37 36 35 34 33 32 32 31 30 29 28 27 27 27
29 29 28 28 28 27 27 26 26 26 27 27 28 30 31 32 33 34 35 36 37 38 39 40 40 40 40 40 40 39 38 37 36 35 33 32 31 32 31 28 28 27 26
22 23 24 24 23 23 23 23 24 25 26 27 28 29 30 32 32 33 34 35 36 37 38 39 40 40 40 41 41 40 39 38 38 37 35 34 33 31 30 29 29 28 28
19 19 19 19 18 18 18 19 21 22 23 24 26 27 29 29 31 32 33 34 35 36 37 39 39 40 40 40 40 40 40 39 39 38 38 36 35 33 31 30 29 29 30
13 13 14 15 16 16 17 18 19 20 22 23 24 25 26 27 28 30 31 32 34 36 37 38 39 40 40 40 40 39 39 39 39 39 38 37 36 34 32 30 31 31 31
11 11 12 13 14 14 15 16 17 17 18 19 20 21 23 25 27 28 30 32 33 35 36 37 38 39 39 39 39 39 38 38 38 38 38 37 36 35 34 32 31 32 33
10 10 11 11 12 12 13 13 13 14 15 16 18 20 22 24 26 28 29 31 33 34 35 35 36 36 36 36 36 36 36 36 36 37 37 36 35 35 34 34 33 33 34
Wind_Direction
289 290 290 287 285 285 283 281 281 281 283 284 287 292 298 303 306 307 309 307 304 300 293 287 283 279 276 275 274 274 274 272 270 270 270 271 272 273 273 272 272 272 272
284 285 285 284 283 282 280 279 278 278 279 280 281 286 290 295 299 301 302 304 303 301 297 290 285 280 276 273 273 271 271 271 269 267 268 268 269 271 272 272 272 272 271
280 281 281 281 280 279 278 277 275 275 275 276 277 280 285 289 292 295 296 299 300 299 298 293 288 283 277 274 272 271 270 269 268 266 266 266 266 267 270 271 271 271 271
277 278 278 278 277 277 276 274 273 273 273 274 275 277 280 283 286 289 292 295 297 296 295 294 290 285 280 276 273 271 269 268 267 266 264 264 263 264 266 268 270 270 270
276 275 275 275 275 274 273 272 271 271 271 272 273 275 277 280 282 286 289 292 294 294 293 292 290 286 282 279 275 273 270 267 265 264 263 262 261 262 263 265 267 269 269
274 273 273 274 273 272 271 271 269 269 269 269 270 271 274 277 280 283 286 289 291 291 291 290 288 287 283 280 276 273 270 268 265 263 262 261 260 260 261 262 264 267 268
273 274 273 273 273 272 270 269 269 269 269 268 269 271 272 275 278 281 285 287 289 290 289 289 287 285 282 279 277 274 271 268 265 263 261 260 260 259 259 261 263 265 266
275 275 274 273 273 271 271 270 271 269 269 269 269 270 272 275 278 281 285 287 288 289 289 288 287 285 282 279 276 274 272 269 265 263 261 259 259 259 259 259 261 263 264
274 274 275 272 270 269 269 270 270 271 270 269 269 269 271 273 277 281 284 287 289 289 289 288 287 284 282 279 276 273 271 268 266 263 261 259 259 258 258 258 260 261 262
274 274 274 272 269 268 267 269 268 267 269 268 269 269 271 272 274 279 284 287 288 289 289 288 287 285 282 279 276 273 270 267 265 264 263 260 259 258 257 257 258 259 260
277 277 274 271 269 268 267 266 264 265 265 264 268 268 270 272 275 278 281 285 287 288 288 287 287 286 284 281 278 274 271 267 265 264 263 262 260 260 258 256 256 256 257
278 278 275 272 267 263 263 262 261 260 263 264 265 266 268 273 276 279 281 282 284 286 287 286 285 284 283 281 279 276 272 269 267 264 262 262 262 262 260 258 257 255 255
277 276 276 271 266 261 258 259 257 259 260 261 264 267 269 273 275 278 280 280 280 282 284 286 285 284 282 280 279 277 274 271 269 266 263 263 262 261 261 259 257 254 254
275 275 272 267 263 258 256 253 255 255 256 259 264 267 270 273 275 277 278 278 277 279 281 283 285 285 284 281 280 277 275 273 270 267 265 263 262 262 260 259 256 254 252
272 272 267 264 260 256 252 252 254 257 257 260 265 268 271 273 274 275 276 277 277 277 278 281 283 285 285 284 282 279 277 275 272 268 267 265 264 263 260 258 254 252 249
267 266 263 259 255 252 249 251 254 257 259 263 265 268 270 272 273 275 276 277 278 276 276 278 281 283 285 286 285 282 278 276 273 271 267 265 265 264 261 260 254 250 247
261 259 255 255 252 249 250 252 254 259 262 263 265 267 270 271 273 274 276 277 278 278 277 277 278 279 280 282 283 283 280 277 274 272 269 267 265 265 262 259 255 250 245
258 255 252 248 247 247 248 251 255 260 262 264 266 269 270 272 273 275 277 278 278 278 278 278 278 278 277 279 280 281 279 277 274 272 270 269 267 266 263 258 253 249 244
254 250 247 246 244 246 248 252 256 260 263 266 268 270 272 274 275 277 278 279 279 279 279 279 278 278 277 277 278 278 277 277 274 272 270 268 265 263 261 257 252 247 242
252 250 245 245 246 246 248 253 257 261 265 268 271 273 274 276 277 279 280 280 280 280 280 280 279 277 277 276 275 275 275 275 275 272 268 265 262 260 259 254 251 247 241
250 246 245 247 246 247 250 254 260 265 269 271 273 275 277 278 280 281 281 282 282 281 281 280 279 278 276 275 274 273 272 271 272 271 268 264 260 259 257 253 249 246 241
244 242 244 245 246 250 253 258 263 268 271 273 275 277 279 281 282 283 284 284 284 283 283 282 280 278 276 274 272 271 269 268 267 267 266 264 260 259 256 252 248 243 240
250 252 251 251 254 256 259 265 268 271 273 275 277 280 282 284 285 286 286 286 286 285 284 283 281 279 277 275 273 270 268 266 264 263 262 261 260 258 255 251 247 242 239
262 255 254 257 259 260 263 267 270 273 275 278 281 283 284 286 287 289 289 290 290 289 287 285 283 281 278 276 273 271 268 265 262 260 259 259 258 256 253 251 246 243 239
269 265 262 260 261 262 266 268 270 274 277 280 283 286 288 290 292 293 294 295 294 293 290 288 285 283 280 276 273 270 267 265 262 259 257 256 254 254 251 250 247 245 242
264 261 259 258 259 261 264 267 270 274 279 284 288 292 294 297 298 300 301 301 300 298 295 291 288 284 281 278 274 270 266 263 261 257 254 253 251 251 250 249 247 245 243
Height
5908 5907 5906 5904 5903 5902 5901 5900 5899 5898 5897 5896 5895 5893 5891 5889 5887 5886 5884 5883 5881 5879 5878 5877 5876 5876 5875 5875 5874 5874 5874 5873 5873 5872 5872 5872 5871 5871 5871 5871 5871 5871 5871
5903 5902 5901 5900 5899 5897 5896 5895 5894 5893 5892 5891 5890 5889 5887 5885 5884 5882 5880 5879 5877 5876 5874 5873 5872 5871 5871 5871 5870 5870 5870 5869 5869 5868 5868 5868 5867 5867 5867 5867 5867 5867 5867
5897 5896 5895 5894 5893 5892 5890 5889 5888 5887 5887 5886 5885 5884 5882 5881 5879 5877 5876 5875 5873 5872 5870 5869 5868 5867 5866 5866 5865 5865 5865 5865 5865 5864 5864 5864 5863 5863 5863 5863 5863 5863 5863
5889 5888 5888 5887 5885 5885 5884 5883 5882 5881 5880 5879 5879 5878 5877 5875 5874 5872 5871 5869 5868 5867 5866 5864 5863 5862 5862 5861 5860 5860 5860 5860 5859 5859 5859 5859 5859 5859 5858 5858 5859 5859 5859
5881 5880 5880 5879 5877 5877 5876 5875 5875 5874 5873 5872 5872 5871 5870 5869 5868 5866 5865 5864 5862 5861 5860 5859 5858 5857 5856 5856 5855 5855 5854 5854 5854 5854 5854 5854 5854 5854 5853 5853 5853 5854 5854
5872 5871 5871 5870 5869 5868 5867 5866 5866 5865 5865 5864 5864 5864 5863 5862 5861 5860 5858 5857 5856 5855 5854 5853 5852 5851 5850 5849 5849 5848 5848 5848 5848 5848 5848 5848 5848 5848 5848 5848 5848 5848 5849
5863 5862 5861 5861 5859 5858 5857 5857 5857 5857 5856 5855 5856 5856 5855 5854 5853 5852 5851 5850 5849 5848 5846 5845 5844 5844 5843 5842 5842 5842 5841 5841 5841 5841 5841 5841 5842 5842 5842 5842 5842 5843 5843
5853 5852 5852 5851 5849 5848 5848 5848 5847 5847 5848 5847 5848 5848 5848 5847 5845 5845 5843 5842 5841 5840 5839 5838 5837 5836 5835 5835 5835 5834 5834 5834 5834 5834 5834 5834 5835 5835 5836 5836 5836 5836 5837
5843 5842 5841 5840 5839 5838 5838 5838 5838 5838 5839 5839 5839 5840 5840 5839 5838 5837 5835 5834 5833 5832 5831 5830 5829 5828 5827 5827 5827 5827 5826 5826 5826 5826 5826 5827 5827 5828 5828 5829 5829 5830 5830
5832 5831 5830 5829 5828 5828 5828 5829 5829 5829 5830 5830 5831 5831 5832 5831 5831 5830 5828 5826 5825 5824 5823 5822 5821 5820 5819 5818 5818 5818 5818 5818 5818 5818 5818 5818 5819 5819 5820 5821 5821 5822 5823
5822 5821 5820 5819 5818 5818 5818 5818 5819 5819 5820 5821 5822 5822 5823 5823 5822 5822 5822 5819 5817 5816 5815 5814 5813 5812 5812 5811 5810 5809 5809 5809 5809 5809 5810 5810 5810 5811 5811 5812 5813 5814 5815
5812 5810 5809 5809 5808 5808 5809 5809 5810 5810 5812 5812 5813 5814 5815 5815 5814 5814 5814 5812 5810 5808 5807 5806 5806 5805 5804 5802 5801 5801 5800 5800 5800 5800 5800 5801 5801 5801 5802 5802 5804 5805 5806
5801 5799 5797 5797 5797 5798 5799 5800 5800 5801 5803 5804 5805 5806 5806 5806 5806 5806 5805 5805 5803 5802 5800 5798 5798 5797 5796 5795 5793 5792 5791 5791 5791 5791 5791 5791 5791 5792 5793 5794 5795 5796 5797
5789 5787 5786 5787 5788 5789 5790 5790 5790 5792 5794 5796 5797 5797 5798 5798 5797 5797 5797 5797 5796 5795 5793 5791 5790 5789 5788 5787 5786 5785 5783 5783 5782 5781 5782 5782 5782 5782 5783 5784 5786 5787 5789
5777 5776 5775 5776 5776 5778 5779 5781 5782 5784 5785 5787 5788 5789 5789 5789 5789 5789 5789 5788 5789 5788 5786 5784 5782 5781 5780 5779 5778 5776 5775 5774 5773 5773 5773 5773 5773 5773 5774 5775 5776 5778 5780
5764 5764 5764 5764 5766 5768 5769 5771 5773 5776 5777 5779 5780 5781 5781 5781 5781 5781 5781 5780 5780 5780 5778 5776 5775 5774 5772 5771 5770 5768 5767 5766 5765 5764 5764 5764 5764 5765 5765 5766 5767 5769 5772
5752 5752 5753 5755 5756 5758 5760 5762 5765 5767 5769 5770 5771 5772 5772 5773 5773 5773 5772 5772 5771 5771 5770 5769 5767 5766 5764 5763 5762 5760 5759 5758 5757 5756 5756 5755 5755 5756 5756 5757 5759 5761 5763
5741 5742 5743 5745 5747 5749 5752 5754 5756 5759 5760 5762 5763 5764 5764 5764 5765 5764 5764 5763 5763 5762 5761 5760 5758 5757 5756 5755 5753 5752 5751 5749 5749 5748 5748 5747 5747 5748 5748 5749 5750 5752 5755
5729 5731 5733 5735 5738 5740 5743 5745 5748 5750 5752 5753 5754 5755 5755 5756 5756 5755 5755 5754 5753 5752 5751 5750 5749 5748 5746 5746 5744 5743 5742 5741 5740 5740 5739 5739 5739 5740 5740 5741 5743 5745 5747
5721 5723 5725 5727 5729 5732 5735 5737 5740 5742 5744 5745 5745 5746 5747 5747 5746 5746 5745 5744 5743 5742 5741 5740 5739 5737 5736 5735 5734 5734 5733 5732 5731 5731 5730 5730 5731 5731 5732 5734 5736 5737 5739
5714 5716 5718 5720 5722 5724 5727 5730 5732 5734 5735 5736 5737 5738 5738 5737 5737 5736 5735 5734 5733 5731 5730 5728 5727 5726 5726 5725 5724 5723 5723 5722 5722 5721 5721 5722 5722 5723 5724 5726 5728 5730 5732
5708 5710 5711 5713 5715 5718 5720 5722 5725 5726 5728 5729 5729 5729 5729 5729 5728 5727 5726 5724 5723 5721 5719 5717 5715 5714 5713 5713 5712 5712 5712 5712 5712 5712 5712 5713 5713 5714 5716 5717 5719 5721 5724
5703 5705 5706 5708 5710 5712 5714 5716 5718 5720 5721 5721 5721 5721 5721 5720 5719 5718 5716 5715 5713 5710 5708 5706 5704 5702 5701 5700 5700 5699 5699 5700 5700 5701 5701 5702 5704 5705 5707 5709 5711 5713 5715
5699 5700 5702 5703 5705 5707 5709 5711 5712 5713 5714 5714 5714 5714 5713 5712 5711 5709 5707 5705 5702 5700 5697 5695 5693 5690 5689 5688 5687 5687 5687 5688 5688 5689 5690 5692 5693 5695 5697 5700 5702 5705 5707
5696 5697 5698 5699 5701 5702 5704 5705 5706 5707 5708 5708 5708 5707 5706 5705 5703 5701 5699 5696 5693 5689 5686 5684 5681 5679 5677 5676 5675 5675 5675 5676 5677 5678 5679 5681 5683 5685 5687 5690 5693 5696 5698
5692 5693 5694 5695 5697 5698 5699 5700 5701 5702 5703 5703 5702 5702 5700 5698 5696 5694 5690 5687 5683 5679 5676 5672 5670 5667 5665 5664 5663 5663 5663 5664 5665 5666 5668 5671 5673 5675 5678 5681 5683 5686 5689